EW4238 Weather Reports


Display with metric or nautical units.
time (UTC)temp
F
wind
direction
speed
MPH
gust
MPH
rain 1hr
in
rain 24hr
in
rain mn
in
humidity
%
barometer
mb
20181117210044 24 146 1.0 4.0 0.00 0.02 0.02 65 1032.9
20181117204609 25 143 1.0 3.0 0.01 0.02 0.02 63 1033.0
20181117203023 25 149 1.0 3.0 0.01 0.02 0.02 65 1033.4
20181117201516 24 141 0.0 4.0 0.01 0.02 0.02 69 1033.7
20181117200012 24 160 0.0 3.0 0.01 0.02 0.02 66 1034.0
20181117194509 24 191 1.0 3.0 0.00 0.01 0.01 65 1034.3
20181117193125 22 141 0.0 3.0 0.00 0.01 0.01 67 1034.3
20181117191725 24 239 0.0 2.0 0.00 0.01 0.01 63 1034.5
20181117190144 25 268 0.0 3.0 0.00 0.01 0.01 61 1034.8
20181117184612 23 286 1.0 3.0 0.00 0.01 0.01 64 1035.3
20181117183124 23 306 1.0 4.0 0.00 0.01 0.01 68 1035.7
20181117181543 21 258 1.0 6.0 0.01 0.01 0.01 65 1035.7
20181117180106 24 297 1.0 2.0 0.01 0.01 0.01 63 1036.1
20181117174608 20 266 0.0 2.0 0.01 0.01 0.01 67 1036.1
20181117173051 21 287 0.0 2.0 0.01 0.01 0.01 65 1036.4
20181117171547 19 287 1.0 3.0 0.00 0.00 0.00 70 1036.4
20181117170020 20 303 0.0 2.0 0.00 0.00 0.00 71 1036.5
20181117164523 18 313 0.0 1.0 0.00 0.00 0.00 75 1037.1
20181117163028 16 313 0.0 2.0 0.00 0.00 0.00 78 1037.3
20181117161504 13 313 0.0 1.0 0.00 0.00 0.00 80 1037.2
20181117160156 10 313 0.0 2.0 0.00 0.00 0.00 82 1037.5
20181117154618 8 313 0.0 2.0 0.00 0.00 0.00 83 1037.5
20181117153142 5 310 0.0 1.0 0.00 0.00 0.00 82 1037.4
20181117151644 3 310 0.0 1.0 0.00 0.00 0.00 84 1037.4
20181117150115 1 310 0.0 2.0 0.00 0.00 0.00 84 1037.1
20181117144545 1 310 0.0 1.0 0.00 0.00 0.00 84 1037.1
20181117143101 1 310 0.0 1.0 0.00 0.00 0.00 83 1037.1
20181117141542 2 310 0.0 1.0 0.00 0.00 0.00 84 1037.1
20181117140111 2 310 0.0 1.0 0.00 0.00 0.00 85 1037.4
20181117134548 2 310 0.0 1.0 0.00 0.01 0.00 85 1037.7
20181117133036 1 310 0.0 1.0 0.00 0.01 0.00 85 1037.6
20181117131513 1 309 0.0 1.0 0.00 0.01 0.00 85 1037.5
20181117130008 0 309 0.0 1.0 0.00 0.01 0.00 84 1037.2
20181117123159 1 309 0.0 0.0 0.00 0.02 0.00 82 1037.3
20181117121734 2 309 0.0 0.0 0.00 0.02 0.00 78 1037.3
20181117120203 3 309 0.0 1.0 0.00 0.02 0.00 82 1037.4
20181117114618 2 309 0.0 1.0 0.00 0.02 0.00 81 1037.0
20181117113104 3 309 0.0 0.0 0.00 0.02 0.00 80 1037.1
20181117111612 3 309 0.0 1.0 0.00 0.02 0.00 81 1037.3
20181117110101 3 309 0.0 1.0 0.00 0.02 0.00 80 1037.3
20181117104553 3 309 0.0 1.0 0.00 0.02 0.00 80 1037.4
20181117103041 3 309 0.0 1.0 0.00 0.02 0.00 79 1037.5
20181117101527 4 309 0.0 1.0 0.00 0.02 0.00 79 1037.5
20181117100042 5 309 0.0 1.0 0.00 0.02 0.00 79 1037.6
20181117094521 6 309 0.0 1.0 0.00 0.02 0.00 79 1037.7
20181117093018 7 309 0.0 2.0 0.00 0.02 0.00 78 1037.6
20181117090146 10 304 0.0 1.0 0.00 0.02 0.00 83 1037.5
20181117084724 10 304 0.0 3.0 0.00 0.02 0.00 83 1037.5
20181117083125 10 304 0.0 1.0 0.00 0.02 0.00 84 1037.6
20181117081602 11 298 1.0 4.0 0.00 0.02 0.00 84 1037.8
20181117080115 11 315 0.0 2.0 0.00 0.02 0.00 83 1037.5
20181117074610 11 315 0.0 3.0 0.00 0.02 0.00 83 1037.6
20181117073117 12 316 1.0 3.0 0.00 0.02 0.00 82 1037.5
20181117071614 12 315 1.0 3.0 0.00 0.02 0.00 81 1037.5
20181117070204 12 326 0.0 2.0 0.00 0.02 0.00 82 1037.5
20181117064610 13 321 1.0 4.0 0.00 0.03 0.00 81 1037.4
20181117063059 13 303 0.0 1.0 0.00 0.03 0.00 81 1037.3
20181117061611 13 352 0.0 1.0 0.00 0.03 0.00 81 1037.3
20181117060120 13 352 0.0 1.0 0.00 0.03 0.00 82 1037.2
20181117054553 13 307 0.0 2.0 0.00 0.03 0.00 82 1037.3
20181117053109 13 307 0.0 3.0 0.00 0.03 0.00 81 1037.4
20181117051612 13 315 2.0 6.0 0.00 0.03 0.00 80 1037.4
20181117050039 14 311 1.0 5.0 0.00 0.03 0.00 80 1037.3
20181117044556 14 292 1.0 2.0 0.00 0.03 0.00 80 1037.0
20181117043042 15 299 1.0 4.0 0.00 0.03 0.00 81 1036.9
20181117041539 14 64 0.0 1.0 0.00 0.03 0.00 81 1036.8
20181117040103 14 62 1.0 5.0 0.00 0.03 0.00 81 1036.7
20181117034527 15 345 3.0 7.0 0.00 0.03 0.00 81 1036.5
20181117033027 15 330 0.0 6.0 0.00 0.03 0.00 82 1036.6
20181117031521 15 345 0.0 0.0 0.00 0.03 0.00 83 1036.5
20181117030035 16 345 0.0 1.0 0.00 0.03 0.00 83 1036.3
20181117024535 16 330 0.0 1.0 0.00 0.03 0.00 83 1036.1
20181117023034 15 21 0.0 5.0 0.00 0.03 0.00 83 1036.0
20181117021521 16 14 0.0 2.0 0.00 0.03 0.00 83 1035.8
20181117020015 16 14 0.0 1.0 0.00 0.03 0.00 83 1035.7
20181117014539 16 35 0.0 3.0 0.00 0.03 0.00 82 1035.7
20181117013018 16 34 0.0 2.0 0.00 0.03 0.00 83 1035.5
20181117011521 16 34 0.0 2.0 0.00 0.03 0.00 82 1035.6
20181117010020 16 29 0.0 2.0 0.00 0.03 0.00 81 1035.4
20181117004506 16 18 0.0 10.0 0.00 0.03 0.00 81 1035.3
20181117001631 16 49 1.0 10.0 0.00 0.03 0.00 81 1034.9
20181117000150 16 314 8.0 14.0 0.00 0.03 0.00 80 1034.6
20181116234643 16 351 3.0 6.0 0.00 0.03 0.00 80 1034.7
20181116233214 16 285 6.0 12.0 0.00 0.03 0.00 80 1033.7
20181116231710 16 355 5.0 15.0 0.00 0.03 0.00 81 1034.0
20181116230129 16 340 7.0 20.0 0.00 0.03 0.00 80 1033.7
20181116224635 16 60 2.0 8.0 0.00 0.03 0.00 82 1032.9
20181116223208 16 360 7.0 15.0 0.00 0.03 0.00 81 1032.9
20181116221615 17 351 3.0 14.0 0.00 0.03 0.00 82 1032.5
20181116220115 18 326 9.0 17.0 0.00 0.03 0.00 79 1032.5
20181116214626 18 348 5.0 15.0 0.00 0.03 0.00 80 1031.9
20181116213047 18 355 10.0 20.0 0.00 0.03 0.00 79 1031.6
20181116211602 18 13 7.0 16.0 0.00 0.03 0.00 79 1031.2